GFSMW_500_rhum_000.txt.gz
RH
35 46 47 56 59 49 62 73 85 96 71 57 53 43 43 64 79 74 67 61 61 61 44 26 20 20 20 19 19 19 18 17 16 14 14 16 16 15 13 12 11 10 9
50 40 68 74 80 71 86 72 54 57 50 49 50 54 54 60 60 66 68 62 49 30 25 26 25 24 23 22 23 22 24 24 22 20 18 16 17 18 18 18 17 16 15
75 81 87 91 77 80 70 64 63 68 74 61 58 62 64 66 65 60 46 31 29 31 33 34 36 36 35 38 38 29 20 18 24 25 25 24 21 18 18 18 18 18 17
72 98 79 81 62 45 46 79 96 71 62 55 60 67 68 58 44 38 34 34 38 47 57 55 44 36 33 25 19 15 17 20 23 26 28 28 24 20 17 16 14 15 14
79 78 100 76 58 73 100 98 62 60 61 64 72 66 46 45 47 49 56 63 58 43 37 32 28 26 24 19 16 19 24 31 37 35 31 24 19 15 13 14 14 16 16
55 65 68 66 96 99 79 58 85 84 70 64 49 48 52 53 52 47 41 39 39 35 30 26 26 24 20 19 24 35 43 42 33 27 19 15 13 16 20 23 37 46 23
43 47 65 57 63 57 56 72 69 64 48 38 38 44 50 49 43 38 40 40 34 30 27 29 22 22 26 32 40 47 42 40 28 16 15 18 25 61 44 75 85 83 67
32 39 47 42 41 46 64 62 51 42 36 40 46 49 46 44 46 45 41 36 33 34 33 26 30 36 44 50 48 41 30 18 15 18 27 63 84 91 63 81 70 44 37
22 27 31 33 36 36 39 46 43 41 49 50 45 50 57 57 52 47 40 39 40 34 32 34 35 42 42 47 41 28 17 13 23 33 60 97 98 92 80 67 56 57 36
20 20 21 22 22 25 30 33 36 45 56 56 58 63 62 58 48 46 47 46 39 38 38 36 41 48 46 36 20 12 14 22 26 58 70 100 99 79 64 58 50 44 36
27 25 23 22 23 25 26 33 48 57 61 61 64 65 63 55 53 53 50 46 43 38 36 44 47 40 26 15 11 14 18 21 39 90 90 91 68 60 48 45 43 32 27
27 27 27 26 27 30 36 44 52 58 62 70 73 66 59 58 57 54 52 47 39 40 49 48 34 23 13 10 12 19 33 66 80 78 66 59 52 47 41 25 27 38 38
31 30 30 30 32 37 41 43 46 63 82 79 69 65 65 62 60 59 49 42 41 48 47 31 22 13 10 15 20 20 44 61 62 59 57 51 45 32 21 35 38 53 71
35 33 33 34 37 41 40 45 56 70 80 76 72 70 68 68 64 52 42 43 49 46 29 22 13 10 14 27 40 48 58 60 63 62 52 47 39 21 31 44 61 73 84
37 35 36 38 43 43 45 42 69 82 82 80 75 77 75 65 53 42 45 50 46 31 25 13 10 12 21 35 45 53 60 57 63 66 53 46 34 24 44 58 74 80 83
42 40 39 42 45 45 45 65 81 88 86 85 84 79 58 49 44 48 52 50 32 25 14 11 10 14 30 40 48 57 57 51 70 61 55 49 26 36 56 79 91 93 94
47 45 42 45 48 54 57 81 90 89 92 92 74 52 47 48 48 50 54 37 27 15 12 10 12 16 34 48 54 61 67 70 78 66 55 44 25 47 71 90 92 100 100
50 47 47 53 61 57 74 84 87 94 93 71 57 55 54 56 57 59 42 29 16 13 12 12 16 34 51 55 60 71 78 80 83 69 54 38 29 54 83 91 100 100 100
50 51 55 58 51 68 85 92 96 88 74 68 62 59 59 63 60 41 29 16 13 14 11 16 28 46 50 52 69 78 84 85 80 65 50 31 39 71 86 97 100 100 100
55 58 44 42 67 80 84 89 87 81 78 72 72 70 70 62 40 29 16 14 15 14 15 22 41 52 54 60 73 80 83 80 71 63 47 28 49 79 89 100 98 100 100
50 39 37 59 85 93 93 95 94 88 85 84 80 74 66 39 28 16 14 15 17 14 24 29 38 53 56 57 65 81 77 71 69 55 43 28 59 83 94 100 96 100 100
44 49 70 94 100 97 96 97 89 88 87 82 80 64 37 27 16 14 14 18 17 23 35 36 34 41 56 64 76 77 71 69 55 46 38 28 63 89 100 100 100 100 100
66 83 100 100 100 100 99 93 95 91 84 82 54 30 26 15 14 15 18 21 23 35 40 40 44 56 62 72 78 73 69 59 48 38 36 29 63 90 99 100 100 98 100
90 100 100 100 100 100 100 98 93 87 82 42 25 22 14 14 15 18 25 27 33 37 48 64 64 62 67 76 73 67 61 50 41 34 38 31 50 99 100 99 100 95 92
100 100 100 100 100 100 100 95 89 73 30 23 20 14 16 17 18 26 34 37 45 63 71 66 62 65 71 70 66 62 50 43 36 34 40 39 32 87 96 99 100 100 97
100 100 100 100 100 100 98 91 61 26 20 18 13 17 20 18 23 34 42 48 47 46 64 68 64 68 64 66 66 56 47 41 36 34 42 45 32 71 100 100 100 100 99

GFSMW_500_rhum_006.txt.gz
RH
26 34 50 54 43 30 33 64 73 72 63 49 42 34 40 74 69 52 50 47 42 38 34 32 32 33 34 32 30 32 36 42 39 35 34 36 35 31 26 21 18 16 14
23 30 33 38 49 71 72 77 96 73 42 54 64 72 81 50 37 26 27 32 34 35 39 46 51 54 57 55 56 53 47 46 44 45 44 38 32 27 23 20 20 20 17
34 49 70 75 79 67 70 88 73 26 23 28 34 49 27 24 40 57 51 47 50 57 63 67 69 65 64 62 54 50 50 52 48 40 35 31 28 25 25 23 21 19 18
48 55 56 36 31 28 27 29 25 21 23 26 21 23 29 37 53 70 69 67 60 59 61 62 66 66 61 56 56 54 51 43 41 36 32 29 27 24 20 20 20 20 18
66 55 44 34 23 21 20 22 23 24 21 20 20 22 27 30 33 39 45 49 56 63 66 66 61 58 57 57 50 45 42 38 36 34 32 29 27 25 22 19 13 6 5
53 31 23 19 19 20 20 20 20 21 20 20 21 23 25 27 30 30 33 42 51 56 60 58 60 58 53 45 39 37 37 36 33 30 30 28 25 17 6 4 5 6 8
22 20 19 20 21 22 23 23 24 24 24 24 25 27 30 30 27 30 35 41 48 58 62 59 54 50 46 40 42 42 40 35 34 32 29 23 7 5 7 9 9 11 16
18 21 23 24 27 29 29 28 28 29 29 31 33 32 28 29 34 32 36 48 52 54 52 51 55 53 53 52 49 37 33 32 32 28 12 5 9 10 14 18 22 22 26
24 25 26 29 33 34 34 34 34 34 36 38 39 46 41 40 37 32 44 54 52 52 58 62 58 57 57 41 31 31 30 31 16 5 9 10 17 24 28 30 34 34 21
27 30 34 38 38 37 38 39 41 42 44 43 45 44 45 43 37 37 56 60 63 67 66 62 63 57 36 31 31 33 23 6 8 11 12 24 33 37 43 47 53 51 40
30 33 36 36 33 32 33 35 42 44 47 48 47 47 46 46 41 53 64 70 76 74 70 70 53 34 32 33 32 12 5 8 11 11 17 34 41 48 55 62 66 60 50
23 23 23 25 25 26 26 30 40 45 49 51 50 50 53 49 46 68 78 81 78 74 76 55 34 34 36 26 4 6 8 11 12 16 31 40 44 50 58 67 70 63 51
18 19 21 24 23 23 23 24 31 46 53 54 53 52 48 38 60 85 87 84 82 77 56 36 34 35 18 4 8 9 10 10 13 24 41 44 47 58 71 78 78 56 45
22 22 23 24 25 25 25 26 30 44 58 58 55 47 38 57 84 92 89 81 70 57 38 33 35 15 5 9 11 10 10 14 24 41 50 56 61 72 76 78 67 50 42
22 23 24 26 27 28 30 34 38 47 59 58 50 44 60 86 91 92 82 74 60 42 37 38 18 6 10 12 12 11 13 19 34 45 46 59 65 69 74 68 57 43 37
24 25 26 28 30 32 34 42 50 54 58 51 52 71 90 95 95 94 82 64 48 42 42 23 8 10 13 13 13 15 19 31 43 49 51 57 60 65 59 58 45 37 30
27 29 31 33 33 34 44 53 55 58 54 62 83 95 98 98 97 87 70 56 44 47 31 9 11 13 14 16 16 23 27 29 40 48 57 65 60 53 48 42 36 34 36
31 33 35 37 41 56 59 58 56 56 74 93 100 100 99 93 88 79 70 49 51 40 12 11 13 15 17 20 25 32 34 34 50 62 62 55 51 46 41 34 35 31 64
50 48 46 50 65 58 56 53 56 79 98 100 100 100 97 81 73 72 58 52 46 19 9 14 15 17 22 28 34 36 48 63 63 60 48 47 42 40 34 32 32 47 79
49 49 60 61 59 58 52 69 94 100 100 100 100 98 92 80 80 75 56 53 27 9 13 14 17 23 29 37 46 63 62 62 61 48 46 43 41 38 32 32 32 69 78
55 60 64 68 62 52 63 90 100 99 98 100 100 98 92 84 84 70 65 36 13 10 14 15 21 31 39 51 63 62 59 59 51 50 45 42 39 35 31 35 33 77 85
75 74 60 50 62 88 89 96 100 98 98 100 100 100 98 99 79 75 48 21 10 14 15 20 30 39 47 45 58 60 58 53 52 49 43 38 36 31 31 38 36 84 96
79 62 64 92 96 94 90 100 100 94 99 100 100 100 100 100 88 64 32 11 12 16 17 26 37 48 50 54 66 60 56 55 53 47 41 36 32 31 35 39 38 90 100
70 72 92 90 86 99 100 100 100 100 100 100 100 100 100 86 72 48 15 10 16 16 23 32 43 51 50 72 71 66 61 58 54 47 39 33 30 31 36 44 37 83 100
84 89 86 94 78 91 100 100 100 100 100 100 100 100 92 78 60 21 11 14 18 20 31 37 46 49 70 82 79 74 66 64 58 50 40 34 29 29 33 43 41 56 92
90 91 88 95 100 100 100 100 100 100 100 100 100 100 92 70 23 12 13 19 19 27 38 43 52 68 83 86 84 80 76 73 63 54 44 34 30 29 36 46 53 39 75

GFSMW_500_rhum_009.txt.gz
RH
28 28 38 47 48 50 52 52 70 70 71 74 36 23 21 17 19 26 28 25 24 24 26 28 33 40 51 53 54 55 62 64 65 59 55 54 54 53 48 42 37 34 31
32 34 42 50 76 75 74 77 69 69 54 35 23 20 20 21 22 23 22 23 26 28 36 48 59 59 62 65 65 64 67 69 62 55 46 39 38 38 34 31 28 27 23
47 55 56 77 80 68 52 38 27 32 26 24 23 21 20 20 19 18 18 19 26 32 33 36 43 53 61 64 65 65 60 52 46 46 41 35 31 26 26 24 21 21 20
43 48 56 58 58 36 25 21 21 21 23 20 20 20 21 23 23 23 22 23 24 26 27 32 42 52 61 64 60 55 49 50 46 37 39 33 23 17 14 15 15 16 18
39 43 56 45 28 24 19 19 20 21 21 22 22 25 31 33 32 31 30 30 29 30 32 34 47 54 60 56 52 54 56 43 36 38 26 20 18 15 14 13 14 12 6
32 49 40 28 20 19 20 24 25 25 26 27 29 33 36 37 36 39 41 39 39 40 33 42 52 57 56 58 59 55 49 46 42 22 19 17 15 14 10 4 2 3 6
43 30 22 18 20 22 27 30 31 31 32 33 34 37 40 41 44 51 49 45 40 32 30 49 60 64 68 64 60 60 54 40 25 20 17 14 7 3 3 5 7 8 13
20 17 19 22 23 29 32 29 25 26 33 36 38 41 44 46 47 48 47 41 35 30 38 61 71 72 68 63 56 47 36 24 20 16 9 4 4 6 8 11 18 16 25
20 22 25 27 29 29 25 21 20 23 26 33 38 42 45 48 49 49 47 42 35 34 57 72 72 71 64 51 42 28 23 21 12 5 5 7 7 9 10 16 32 32 31
15 18 24 25 23 21 19 19 19 22 24 27 27 29 36 46 52 53 47 43 39 54 76 82 77 63 52 39 27 23 24 9 5 7 8 9 9 10 14 29 38 40 38
15 17 19 20 20 19 20 21 22 24 25 24 25 27 30 47 56 51 49 45 59 83 84 77 69 57 40 27 18 17 9 6 8 10 10 9 11 13 22 35 38 40 43
16 17 18 19 20 21 22 22 23 24 27 28 30 32 41 47 53 50 52 65 87 86 80 72 59 46 31 25 22 20 8 10 11 11 11 12 15 28 42 46 47 48 55
20 21 21 22 22 23 23 24 25 27 30 33 34 43 51 56 55 55 70 92 90 87 76 62 49 41 32 32 33 15 10 11 13 12 14 17 25 40 42 48 55 56 54
21 21 21 23 25 25 26 26 29 34 36 39 53 57 60 57 57 80 98 97 93 83 70 58 52 44 35 36 23 11 12 13 15 14 19 24 33 40 42 47 58 58 51
22 24 28 32 32 30 30 34 36 41 45 62 62 60 58 66 88 100 100 95 92 81 65 50 46 36 41 29 11 12 12 16 16 19 25 26 31 42 55 59 58 47 43
39 41 40 36 34 36 39 44 47 55 69 63 63 59 70 100 100 100 100 95 90 83 59 64 52 46 37 12 10 12 15 22 23 25 29 29 40 51 49 45 49 44 34
40 38 40 51 60 60 57 55 68 70 65 62 59 72 97 100 100 96 100 98 82 84 76 80 49 45 29 10 13 14 21 26 26 30 39 52 51 46 44 41 38 36 30
47 58 63 61 60 59 63 75 67 68 66 66 86 100 100 100 93 98 95 90 93 89 99 81 57 39 13 12 14 19 28 39 45 54 53 54 47 43 42 39 37 33 30
41 41 47 55 58 69 67 72 71 64 66 91 100 100 100 100 100 100 96 100 100 100 100 75 53 13 9 14 16 27 34 49 57 52 54 50 45 42 38 35 34 30 34
34 43 48 56 67 74 77 67 68 97 100 100 100 100 100 100 100 100 100 100 100 99 96 68 32 9 13 14 22 31 35 40 55 57 50 48 46 40 35 33 30 31 34
40 50 68 82 85 77 75 83 98 91 78 96 92 99 100 100 100 100 100 100 100 100 95 60 13 11 15 17 27 34 37 53 61 55 52 48 43 38 33 29 27 31 35
68 70 69 65 71 80 90 92 76 78 100 100 100 100 100 100 100 100 100 100 100 78 53 19 10 16 16 26 30 32 46 65 64 59 56 51 44 36 30 27 28 36 35
64 57 55 77 80 83 90 93 100 100 100 100 100 100 100 100 100 100 100 98 88 68 29 10 14 18 20 26 34 41 64 74 67 62 60 54 47 36 29 29 32 40 38
53 67 76 79 84 88 90 99 90 100 100 100 100 100 100 100 100 100 100 88 70 29 12 14 20 22 29 34 40 65 76 76 74 71 68 58 49 36 30 30 33 43 42
73 72 78 84 86 89 86 78 88 97 100 100 100 100 100 100 100 100 88 42 18 15 16 21 24 29 40 48 65 73 73 72 74 77 75 66 54 40 29 28 31 43 48
67 76 80 85 92 91 96 100 100 100 100 100 100 100 100 100 88 40 16 16 18 18 22 29 28 40 50 58 75 78 75 74 79 84 84 73 61 47 32 27 29 36 49

GFSMW_500_rhum_012.txt.gz
RH
25 28 30 31 34 41 37 31 49 62 62 56 34 15 18 17 17 18 20 22 24 23 24 24 23 21 21 21 24 32 38 45 55 56 58 54 48 52 52 49 41 34 29
17 25 27 30 32 53 53 54 46 33 22 20 17 18 18 18 21 24 27 30 32 31 32 34 32 28 25 25 25 40 42 47 53 51 53 52 52 47 40 37 32 24 20
21 26 33 40 40 46 47 39 43 20 18 19 20 19 20 23 25 28 33 35 38 39 38 38 36 34 28 25 32 49 52 54 62 64 56 46 39 32 31 31 31 30 30
15 25 35 36 46 60 58 28 19 19 20 21 22 23 25 25 30 31 32 37 32 38 42 42 38 37 31 28 42 60 68 66 58 51 43 37 33 29 24 20 16 14 12
14 17 22 31 55 52 31 17 20 25 26 26 28 29 31 30 30 33 37 40 42 44 45 45 41 40 33 37 58 68 69 61 47 38 32 27 21 17 14 12 7 4 3
15 14 13 23 40 32 17 19 26 30 28 30 32 32 29 30 34 36 38 43 44 48 47 44 46 42 43 60 66 66 55 41 36 31 24 18 14 11 9 6 4 5 6
13 15 20 24 17 20 20 24 29 26 23 27 27 24 26 27 28 27 26 27 29 35 41 47 49 50 64 69 68 56 47 40 32 23 17 13 12 12 7 7 7 7 7
26 27 17 17 20 22 24 26 22 20 21 20 21 23 26 26 25 26 27 31 37 42 47 48 54 65 76 74 66 59 50 35 26 18 11 8 6 7 8 9 8 7 7
16 18 18 18 22 25 24 22 20 18 19 21 22 24 25 26 27 27 29 36 46 50 50 53 68 75 70 67 68 59 37 28 21 18 17 10 7 9 9 10 9 8 8
18 15 14 15 17 18 18 18 19 20 22 23 24 26 28 30 30 32 40 50 53 54 53 69 80 77 73 71 69 50 36 31 30 23 19 9 9 9 11 10 11 16 20
15 15 15 16 17 19 20 22 22 22 24 26 27 28 30 33 34 47 56 60 58 55 74 82 75 76 77 72 61 43 31 41 31 20 13 10 10 12 13 14 16 23 29
16 16 18 20 21 21 20 22 25 27 31 31 32 33 35 43 55 63 59 58 58 68 82 82 69 76 67 48 48 36 61 64 30 13 9 10 14 15 19 21 24 30 31
18 18 19 19 20 24 31 36 39 37 35 36 55 59 52 85 74 72 59 60 74 78 91 87 72 79 63 60 65 68 95 84 32 10 10 13 17 18 24 24 24 33 39
20 22 22 22 27 36 40 40 38 44 63 66 67 63 67 82 66 60 60 90 84 78 99 89 79 75 69 68 90 100 80 31 16 10 12 19 20 22 28 26 40 45 43
28 31 37 36 32 36 38 51 59 62 63 62 72 83 86 76 67 61 87 89 99 97 98 94 88 80 80 99 100 85 37 31 13 11 15 23 24 27 44 42 50 43 38
38 42 44 44 46 51 49 54 53 52 60 76 79 73 72 62 85 100 95 90 96 97 100 100 100 100 100 100 95 55 31 16 11 13 19 27 33 37 42 42 43 44 39
31 35 44 51 53 40 35 44 50 51 70 74 77 71 76 96 97 98 100 99 100 100 100 100 100 100 100 98 55 29 16 11 15 18 22 27 36 42 40 40 39 38 34
31 30 27 26 26 35 39 41 61 70 79 83 78 90 90 92 100 100 100 100 99 95 100 100 100 99 98 81 31 16 12 14 18 21 23 28 36 42 43 44 42 36 32
15 14 17 24 34 48 61 73 86 90 76 78 82 85 97 88 81 97 100 100 100 100 100 100 98 96 90 34 12 11 14 20 22 24 25 40 47 44 44 44 39 32 27
16 20 30 53 68 77 73 66 66 78 85 80 89 100 95 100 100 100 100 100 100 100 100 99 94 85 33 12 13 15 19 22 24 28 37 52 56 52 50 46 38 31 26
24 38 56 64 63 59 57 73 79 86 91 100 100 94 96 90 100 100 100 100 100 100 100 97 83 38 15 14 20 20 22 27 33 45 61 57 60 58 54 46 37 30 26
50 55 51 55 57 66 78 80 86 92 97 96 96 92 92 100 100 100 100 100 100 100 92 63 27 15 15 16 22 26 27 34 46 64 71 71 69 66 58 48 36 29 27
40 45 49 61 76 80 83 88 85 88 98 100 100 100 100 100 100 100 100 100 100 97 81 42 17 18 18 20 24 29 38 46 62 67 70 70 73 71 63 50 35 28 29
48 51 68 74 74 78 78 75 75 78 100 100 100 100 100 100 100 100 100 96 77 39 13 17 19 22 25 27 27 28 46 60 72 71 74 83 85 79 66 52 36 27 31
64 64 58 57 60 63 64 65 69 80 100 100 100 100 100 100 100 100 97 73 24 13 16 24 28 28 33 36 34 33 52 63 79 81 82 83 85 80 71 59 41 26 26
65 61 60 61 62 58 48 30 50 77 100 100 100 100 100 100 99 77 35 16 14 19 26 29 35 37 39 42 42 54 67 71 77 80 77 80 87 87 81 70 54 31 23

GFSMW_500_rhum_015.txt.gz
RH
19 33 11 13 12 27 42 26 27 25 25 26 19 17 18 18 19 21 22 24 28 32 36 39 40 35 34 36 36 40 40 34 34 40 49 57 60 58 53 47 41 37 33
20 13 9 11 13 15 39 54 43 24 19 18 18 18 20 21 21 22 23 25 30 32 36 40 38 34 36 39 37 37 40 40 42 49 53 55 51 43 36 30 26 23 20
16 19 19 12 9 14 37 63 48 23 17 20 20 21 21 20 24 27 29 31 32 33 31 29 29 29 31 33 31 39 45 48 55 56 53 46 39 32 27 25 23 21 18
17 20 36 10 10 13 38 47 33 25 22 24 22 19 18 20 23 25 26 24 22 22 23 24 24 26 28 30 35 47 51 59 62 59 51 38 30 28 25 22 20 11 8
16 19 24 15 17 16 37 40 20 20 26 26 23 23 23 22 22 22 21 22 23 24 25 25 26 26 33 42 46 55 64 58 43 34 28 31 31 23 17 14 12 26 27
25 20 17 16 24 30 36 34 25 21 26 22 24 25 26 25 23 22 22 24 25 26 26 27 28 40 47 48 56 64 56 41 32 31 33 30 30 28 34 48 34 22 7
19 15 23 36 26 19 26 23 23 24 26 26 27 23 21 22 23 24 25 26 28 30 30 37 45 48 49 56 71 61 47 42 44 32 37 26 24 39 42 19 23 10 5
20 28 36 21 19 21 22 20 20 22 22 20 20 21 23 24 25 27 29 31 33 34 43 54 54 52 54 65 67 64 60 55 50 37 32 42 73 50 25 25 12 5 6
36 46 37 15 15 15 16 16 16 18 20 22 23 23 25 30 32 34 38 46 57 77 69 62 58 56 58 63 59 66 66 59 48 46 54 84 78 30 24 12 6 8 8
18 18 16 16 16 18 19 19 19 20 21 24 32 39 39 38 39 51 67 84 72 86 68 100 60 65 71 65 69 87 92 86 71 62 88 94 76 24 14 6 8 9 11
17 17 17 17 18 20 21 21 20 22 33 43 43 41 42 54 80 79 76 78 82 76 69 58 68 71 87 79 82 100 100 100 97 100 100 100 38 14 8 9 11 13 14
17 16 16 16 18 20 23 31 31 31 32 38 46 55 73 80 68 61 71 80 79 68 68 77 77 75 73 88 100 100 76 77 100 100 100 88 27 10 10 13 13 15 20
16 16 17 16 16 20 27 40 52 50 60 68 58 62 70 68 59 66 69 72 64 78 73 78 87 80 88 100 94 95 82 100 100 97 88 30 10 10 15 19 20 24 29
19 17 16 14 12 23 26 41 55 69 74 80 56 50 57 46 58 76 76 67 75 74 83 90 89 97 99 100 100 100 97 100 96 74 45 16 11 13 21 21 30 35 34
29 25 22 35 38 42 63 75 92 85 75 66 44 43 46 62 80 70 70 76 78 64 64 76 100 100 100 100 100 100 99 100 72 30 14 12 15 18 20 23 34 36 34
31 35 33 29 35 72 87 83 91 61 55 47 62 64 58 67 73 84 89 88 73 96 100 100 100 100 100 100 100 99 99 51 19 9 11 16 20 23 22 36 41 40 35
30 34 39 38 27 20 38 34 37 50 69 77 70 64 74 79 88 96 76 99 100 97 100 100 100 100 100 100 100 98 61 29 12 12 18 23 26 28 33 44 44 44 43
18 17 17 20 16 20 30 43 57 66 63 59 62 76 82 87 85 93 100 100 100 100 98 100 100 100 100 99 92 71 36 13 16 19 25 27 31 41 53 58 55 53 47
10 8 8 13 32 65 78 73 67 60 60 66 72 72 71 83 100 100 100 100 100 100 100 100 100 100 98 86 58 26 14 14 22 28 31 36 50 60 61 62 62 58 48
10 11 23 43 46 44 40 47 48 52 67 70 67 69 81 90 92 100 100 99 98 86 100 100 100 99 86 43 18 17 16 20 26 35 35 50 61 62 64 68 68 61 47
27 43 45 42 38 38 44 53 67 71 79 74 74 78 94 92 100 100 100 100 100 100 100 100 97 74 32 15 20 22 24 29 34 42 49 57 63 60 65 71 72 60 47
45 38 31 38 55 59 71 83 85 80 68 65 68 74 79 97 100 100 100 100 100 100 100 95 57 15 14 17 28 28 32 37 42 54 58 59 61 66 71 81 73 60 46
37 27 37 62 70 76 74 69 66 69 65 59 45 42 70 81 100 100 100 100 100 98 76 34 18 15 15 20 27 33 37 41 48 60 64 68 72 73 78 82 75 62 46
30 30 51 71 73 73 70 68 66 57 32 10 6 6 14 51 99 100 100 100 78 53 37 29 22 19 17 21 25 30 38 41 48 60 69 77 79 78 86 88 82 70 49
38 52 68 69 64 62 63 62 37 11 5 4 4 5 9 44 98 100 80 48 47 50 45 34 26 19 20 26 29 33 41 44 49 73 86 90 90 84 80 85 86 83 68
74 74 66 63 61 64 54 21 6 5 4 4 5 6 9 23 82 60 58 69 77 69 42 23 20 20 27 34 37 40 47 50 56 81 97 98 95 90 90 91 93 91 86

GFSMW_500_rhum_021.txt.gz
RH
28 26 11 12 11 9 18 32 45 46 32 22 22 19 20 20 20 20 20 19 18 18 18 20 21 21 21 23 27 29 30 34 43 49 48 48 51 56 63 62 56 42 32
22 20 18 12 11 12 16 34 61 42 27 20 20 21 22 23 23 23 22 19 17 18 20 21 21 22 26 31 32 34 52 52 52 52 52 53 54 64 70 65 62 61 67
15 17 23 26 12 12 20 27 62 56 43 25 24 25 27 29 26 23 20 17 19 21 21 21 26 32 35 37 54 69 64 57 64 62 58 55 54 60 71 72 76 86 89
19 16 21 30 23 18 30 52 59 66 68 42 25 25 29 74 29 24 19 20 21 21 25 31 33 36 43 68 62 54 47 49 61 57 54 58 56 58 62 73 76 82 83
43 26 31 51 51 21 38 36 45 63 58 49 47 26 40 65 33 22 27 26 24 28 27 25 31 50 54 48 44 75 65 68 69 60 60 64 70 75 70 63 74 67 77
60 68 80 63 47 38 33 56 63 61 65 43 40 36 43 45 62 53 59 52 34 23 25 37 50 72 100 80 61 63 64 63 61 63 68 75 81 85 99 85 86 92 97
44 41 43 54 57 40 49 46 22 41 52 30 22 36 44 54 73 73 77 72 51 53 59 56 98 77 72 63 63 64 65 68 66 72 76 72 75 88 84 79 73 65 58
32 22 49 82 82 82 58 34 28 73 50 54 47 40 55 53 83 84 77 59 56 62 60 43 94 100 93 59 64 69 64 67 69 80 80 82 90 96 84 70 67 56 64
16 26 43 39 62 47 38 41 46 32 38 44 42 40 70 93 93 77 61 64 64 62 70 66 53 61 58 57 59 61 64 72 77 86 93 100 100 98 72 60 58 79 88
19 18 17 17 21 18 22 20 29 28 39 33 31 44 76 95 74 72 81 79 84 95 65 55 62 68 64 68 72 75 78 81 87 92 85 88 93 81 75 96 100 99 75
20 19 18 18 17 18 19 22 26 24 29 39 45 54 77 92 98 89 88 91 99 74 62 69 79 68 75 77 80 83 92 100 100 100 100 100 99 95 90 100 94 61 27
30 22 18 18 18 19 18 20 25 28 30 40 52 64 89 91 96 98 100 100 87 72 80 73 69 82 92 100 98 90 100 87 86 99 96 98 96 100 100 81 34 17 14
20 21 20 21 19 18 28 29 29 54 71 79 93 97 94 83 92 95 100 93 80 83 75 77 86 86 92 100 100 97 83 77 94 96 88 91 100 97 59 23 13 12 16
21 22 21 24 26 28 32 43 50 59 75 76 81 93 90 88 98 99 85 78 69 70 82 87 82 80 74 76 84 81 88 66 81 89 91 100 86 43 17 10 13 16 23
15 19 18 24 36 26 25 39 57 51 55 54 54 50 47 50 66 76 59 51 65 72 68 66 74 75 51 63 82 100 100 72 94 100 100 78 31 14 12 16 19 24 27
23 18 16 16 14 8 6 6 6 13 12 12 30 43 45 39 56 39 52 62 66 65 60 100 100 87 81 44 99 100 62 100 100 100 64 23 17 15 15 21 26 31 32
19 20 18 14 12 8 7 6 7 10 20 38 44 37 36 38 52 62 69 68 64 76 100 73 100 94 44 21 46 67 86 100 90 49 35 23 18 17 20 28 34 35 39
22 15 11 9 6 6 6 7 11 22 38 43 38 30 57 78 74 76 72 67 73 100 58 31 72 18 10 33 82 62 100 72 43 47 29 25 19 20 26 36 39 44 48
13 10 7 5 5 6 7 12 23 36 42 40 34 62 80 81 74 66 100 75 92 62 7 7 21 26 12 31 47 98 74 45 44 50 32 31 22 23 31 42 44 53 61
8 6 5 5 5 7 11 19 33 43 42 41 51 79 80 72 56 58 58 40 14 5 4 5 6 7 13 33 60 59 54 48 58 39 36 32 24 24 34 46 48 60 72
8 8 7 7 8 15 29 41 47 48 53 59 73 77 64 61 62 52 31 10 6 5 6 7 8 9 18 58 57 52 70 84 59 33 34 34 26 26 37 50 53 70 78
11 11 11 12 18 27 44 52 54 61 71 79 74 68 67 64 51 26 8 6 6 7 8 8 9 12 32 47 41 44 86 96 55 36 37 34 30 29 40 55 59 79 83
20 20 16 17 28 44 52 54 59 71 76 76 73 71 65 54 28 11 7 7 8 8 9 10 12 26 38 38 47 79 100 90 60 46 42 36 36 34 42 61 68 89 89
31 23 20 29 44 52 58 62 72 80 83 81 77 67 54 36 14 8 7 7 8 9 11 13 24 50 81 99 100 100 100 88 70 52 44 38 41 42 45 65 76 91 90
32 24 30 47 56 62 70 80 92 97 94 88 82 67 45 17 8 7 8 9 10 12 15 26 52 90 100 100 100 100 96 82 67 54 42 38 46 50 50 69 83 98 93
28 35 51 58 64 75 90 100 100 99 94 91 79 57 26 11 8 8 9 12 14 18 32 56 82 98 98 82 81 84 75 63 49 38 36 41 51 55 58 72 88 100 100

GFSMW_500_rhum_024.txt.gz
RH
17 18 17 16 15 12 21 36 46 39 32 22 20 29 24 30 19 18 18 18 18 18 17 17 19 20 20 28 34 34 41 61 60 54 46 42 51 56 56 59 60 51 48
36 18 18 13 12 16 24 33 40 41 34 22 18 22 21 21 20 20 19 18 19 18 18 20 21 26 32 36 39 47 64 75 64 90 86 63 62 61 59 57 54 54 60
21 24 24 17 14 14 20 22 49 46 48 27 19 22 25 23 21 25 34 22 20 20 27 31 34 35 41 47 51 58 94 98 74 53 57 63 64 64 63 63 64 69 77
25 20 18 25 29 14 14 36 56 50 63 42 22 22 21 21 25 40 60 49 52 53 55 60 58 62 55 63 100 91 86 91 66 51 56 62 60 51 47 60 71 75 77
27 30 33 37 42 59 25 30 46 39 50 60 50 43 36 38 35 48 55 62 77 76 71 80 83 75 81 69 72 99 100 94 71 53 59 61 62 66 66 65 74 79 88
57 42 42 48 92 87 62 39 62 75 61 76 91 50 29 31 41 55 71 77 89 96 88 83 86 86 87 87 80 44 51 49 55 60 61 63 63 69 79 84 90 89 87
34 65 66 85 88 71 64 55 75 72 49 91 89 75 60 57 60 64 79 92 100 100 94 86 91 92 86 72 50 47 54 54 56 62 61 62 67 75 82 87 85 76 72
58 53 48 44 47 65 58 49 47 55 64 87 98 79 67 60 54 84 97 100 100 100 95 100 96 92 86 61 57 59 55 56 56 52 54 71 82 81 91 65 45 54 40
37 18 22 50 84 91 88 39 30 24 28 40 54 52 51 67 72 97 100 99 97 92 100 96 82 87 89 59 58 52 55 62 60 56 67 82 87 86 71 67 24 12 39
25 18 19 18 17 24 19 18 19 19 19 25 50 74 71 74 84 94 94 99 92 85 88 83 88 100 64 56 54 62 65 60 58 72 80 80 68 73 79 41 31 92 94
42 21 20 19 19 19 19 20 20 23 38 57 80 75 87 87 90 94 100 94 85 79 94 91 99 74 55 57 74 69 62 78 87 78 64 25 14 44 13 52 80 75 35
55 32 25 21 20 19 20 20 25 50 71 67 73 88 95 97 100 100 100 98 99 84 73 95 79 59 70 85 67 60 77 85 93 86 72 6 8 22 48 74 58 23 17
27 24 22 21 22 21 21 42 76 79 64 68 80 75 85 96 99 88 89 48 49 53 64 77 68 80 89 74 72 89 93 94 96 96 6 6 15 32 74 44 30 22 20
20 22 24 26 26 21 33 62 79 61 48 52 47 74 74 61 46 46 44 45 44 45 65 75 80 73 72 97 100 100 75 64 87 15 8 20 47 79 40 33 32 31 22
21 20 18 18 18 21 31 36 26 14 10 7 28 51 40 32 45 49 44 34 51 89 92 77 83 97 100 100 100 100 30 7 12 20 14 30 69 44 37 40 42 32 20
21 19 20 20 18 15 10 9 6 4 4 4 6 12 23 35 43 43 36 68 100 84 80 70 99 100 100 62 83 30 7 7 11 11 16 48 52 44 46 46 43 28 21
25 23 22 20 16 10 8 5 5 4 5 6 11 22 37 43 44 42 80 95 84 79 73 75 96 85 72 18 6 5 6 8 10 15 54 58 55 63 53 46 40 29 23
23 20 18 13 10 7 6 6 5 6 7 10 17 28 42 46 49 65 78 78 75 98 100 67 46 29 8 6 6 7 9 10 12 34 51 57 61 77 51 43 42 31 24
23 20 14 10 6 7 8 8 9 9 9 13 22 37 49 54 60 74 78 74 73 93 66 48 26 10 7 7 8 9 10 13 22 43 44 44 66 91 60 46 43 33 26
20 13 9 9 10 10 12 14 14 12 13 21 35 48 52 59 74 81 77 74 67 56 44 27 12 8 8 9 10 12 14 21 37 42 43 58 93 94 70 50 43 36 30
12 11 12 13 16 24 27 22 18 16 23 39 51 56 63 77 83 82 83 82 71 58 37 17 9 9 9 10 12 15 22 47 49 48 85 100 97 98 71 53 45 35 32
16 20 26 33 37 37 33 24 19 25 39 53 62 72 85 92 95 95 90 83 74 59 27 12 9 10 11 12 17 26 46 84 97 100 100 100 99 93 68 52 44 37 39
17 24 35 41 44 43 33 23 26 40 55 64 78 93 100 100 96 93 88 84 70 42 16 10 10 10 12 18 29 51 82 100 100 100 100 100 94 78 58 48 45 39 49
19 30 46 56 56 45 32 29 40 55 66 73 79 83 87 90 86 85 86 73 38 17 11 10 10 12 16 26 54 76 99 100 98 96 92 81 63 47 40 47 53 47 54
35 48 58 63 57 42 34 44 60 67 71 74 77 79 76 74 82 88 70 35 16 12 10 12 15 19 21 36 47 68 72 70 68 61 53 43 33 35 40 50 57 57 58
38 51 63 62 51 43 52 67 74 77 80 77 73 75 84 91 87 64 38 18 12 12 17 22 28 36 51 49 41 43 53 52 42 32 26 23 26 30 38 51 50 59 64

GFSMW_500_rhum_030.txt.gz
RH
28 26 30 37 35 32 28 23 20 22 23 26 27 29 39 36 54 65 35 21 18 18 19 18 18 19 29 43 52 61 63 57 47 29 44 55 71 68 48 38 32 33 39
22 26 35 42 42 39 41 38 36 39 40 33 25 22 32 38 37 36 40 25 24 21 21 26 54 55 60 60 66 61 57 49 44 51 54 86 67 71 66 41 34 40 44
27 22 22 34 22 22 29 36 44 51 50 46 34 25 39 42 39 67 50 58 27 26 39 49 55 66 70 69 61 36 39 44 52 62 76 86 86 59 30 32 42 49 41
30 20 18 19 17 17 18 21 25 33 38 48 56 53 26 30 43 84 90 43 32 32 44 52 61 76 76 69 58 65 74 82 60 76 89 83 90 84 46 44 49 52 48
24 24 22 22 23 28 30 31 33 30 39 61 57 49 68 50 37 42 80 55 45 49 53 57 69 82 80 76 73 85 72 87 83 97 91 68 79 63 58 63 58 44 44
78 34 20 19 19 21 25 28 43 75 67 49 57 70 89 84 73 61 78 54 65 80 83 87 85 82 79 85 94 90 88 84 85 100 81 74 70 55 61 52 57 65 69
78 78 82 37 31 25 30 30 39 73 69 42 64 86 72 62 97 98 98 98 98 98 99 97 92 98 97 100 100 86 99 95 95 95 66 75 63 72 72 66 67 79 75
86 94 85 68 69 68 58 58 50 68 63 46 65 66 68 76 70 72 86 98 98 98 98 93 99 99 96 99 95 87 100 100 78 46 77 70 70 71 72 80 74 81 87
94 100 87 72 74 63 54 61 57 57 59 58 65 41 59 52 48 83 98 98 96 97 94 95 93 88 81 93 81 100 88 99 48 71 83 74 61 64 72 86 100 96 71
72 82 64 56 36 62 75 52 55 72 89 88 39 23 23 34 78 98 98 98 96 97 91 89 76 100 99 99 100 98 95 56 88 96 84 74 58 84 89 90 68 42 15
66 59 72 75 26 23 24 30 29 40 62 69 24 22 24 87 98 97 89 84 75 92 94 92 99 100 100 98 91 75 58 88 94 92 81 80 91 97 88 54 23 14 10
38 32 38 63 60 33 25 22 22 22 22 22 23 24 58 61 78 76 42 59 75 60 60 70 67 55 49 49 73 64 95 100 100 100 100 100 100 100 72 26 15 12 10
28 24 21 76 88 70 66 48 38 30 29 30 33 31 32 76 70 42 33 38 25 20 16 27 26 40 47 65 83 100 97 87 79 77 95 100 100 77 32 26 18 11 11
15 14 20 26 33 35 36 44 32 27 32 30 23 40 42 36 29 9 8 8 11 13 18 23 31 46 58 75 81 85 90 100 87 79 89 81 54 40 27 18 12 12 15
20 15 23 29 31 38 35 31 28 32 46 42 30 27 16 7 7 10 14 16 14 15 17 22 36 48 97 95 94 93 87 90 91 97 75 63 55 40 19 12 12 15 24
13 21 27 41 44 37 29 28 34 40 34 28 16 8 9 11 18 24 26 21 18 16 19 23 45 57 80 99 100 100 93 100 100 93 83 67 44 21 13 13 15 23 46
12 14 28 43 48 44 41 36 33 31 23 11 9 12 18 23 24 32 29 24 21 19 23 37 56 66 88 97 97 100 98 98 98 91 76 44 26 18 14 15 22 38 69
12 15 16 28 39 41 41 36 32 19 11 12 18 22 19 25 39 41 36 28 22 28 41 56 68 77 98 100 100 100 93 85 87 70 52 37 24 17 18 26 30 43 80
15 16 18 26 37 36 35 25 13 13 18 20 20 21 30 45 48 44 35 28 32 43 56 63 71 82 93 98 98 86 76 78 76 68 57 40 25 22 25 35 41 45 66
18 17 31 34 32 21 13 14 16 15 14 16 18 25 41 50 50 44 38 37 43 50 57 66 74 87 90 82 76 76 74 78 80 70 50 31 22 27 34 54 53 51 57
20 25 32 21 14 15 15 14 14 13 14 16 24 35 46 53 52 46 43 45 53 63 73 79 76 75 80 77 77 83 84 79 69 54 28 16 20 31 45 67 72 65 56
29 19 15 15 14 14 14 14 15 17 21 29 43 52 53 54 54 54 57 61 63 68 76 84 86 80 71 72 78 83 75 63 46 24 10 13 16 26 47 52 54 60 44
15 14 15 14 16 17 17 19 21 25 28 40 51 59 55 59 62 62 58 59 62 65 67 69 67 64 70 79 77 71 58 31 15 13 12 11 12 18 24 31 34 35 35
16 16 18 21 21 22 24 26 29 33 37 44 55 58 60 66 65 59 61 62 64 63 62 61 61 66 72 70 65 56 37 14 9 9 10 12 14 17 19 21 27 36 37
20 22 24 26 26 28 32 35 41 42 46 53 59 64 68 66 61 62 60 61 61 64 64 65 68 69 68 63 54 36 20 13 8 7 10 12 13 12 8 8 13 38 39
21 21 23 26 35 40 42 50 50 48 57 64 70 70 66 63 65 62 62 69 69 67 72 72 72 71 63 50 30 18 11 9 9 11 12 12 9 6 8 17 31 37 33

GFSMW_500_rhum_033.txt.gz
RH
20 25 26 31 29 29 27 19 21 18 28 52 20 20 28 50 78 93 90 73 31 20 18 18 17 17 18 22 47 47 45 45 22 39 46 41 50 49 72 62 42 33 34
18 21 24 32 29 31 33 29 26 25 24 27 26 23 22 27 38 68 80 51 29 21 20 20 20 27 37 56 50 49 59 54 48 65 69 67 38 29 38 82 58 40 35
21 18 21 29 35 30 20 19 22 26 29 32 36 34 26 28 40 34 48 50 40 34 23 27 29 37 40 48 61 80 79 62 65 67 80 68 51 47 35 43 60 37 40
23 29 17 16 14 12 13 13 12 12 16 22 30 42 52 40 32 44 44 66 77 70 31 26 33 52 61 65 85 85 76 63 59 68 65 74 76 75 94 74 39 36 45
49 20 21 17 16 14 14 16 18 18 18 22 27 42 48 47 55 34 22 30 55 75 55 49 67 80 79 84 93 84 78 74 83 86 76 56 98 100 98 67 82 56 46
67 57 34 19 18 18 19 21 20 21 26 48 68 46 51 64 73 81 75 73 73 83 91 81 94 98 96 95 95 97 91 100 100 93 81 96 84 76 94 50 75 74 67
73 72 77 81 94 76 36 33 35 42 42 43 63 58 51 81 86 80 85 80 76 85 97 97 99 98 93 90 86 100 99 96 99 93 100 94 86 100 61 76 80 73 76
59 67 81 92 87 68 62 66 68 71 70 88 64 66 52 62 58 55 58 68 97 97 97 98 96 92 84 80 84 93 100 100 100 99 94 100 72 53 72 82 83 80 98
43 70 84 85 92 67 58 55 64 65 64 61 71 95 57 61 37 24 26 69 94 97 98 97 80 75 87 87 85 100 100 97 98 100 98 68 52 75 78 79 95 100 100
43 71 92 96 97 87 62 36 49 63 65 62 75 98 68 35 23 23 54 87 96 90 72 78 71 59 70 81 99 89 95 100 94 50 41 47 65 77 89 97 92 93 92
56 67 76 88 85 80 68 34 27 29 34 28 33 31 58 40 45 46 40 47 63 54 30 32 24 20 29 29 80 76 53 35 36 44 55 72 91 93 100 100 96 96 83
38 47 58 82 80 78 71 47 25 22 21 21 22 22 44 30 35 61 49 72 66 54 33 12 10 12 15 37 37 27 41 47 53 64 75 76 87 100 93 100 100 96 84
15 25 35 36 34 39 75 86 67 57 51 40 32 28 27 36 40 37 46 46 28 10 11 10 15 18 45 48 35 47 56 68 100 97 86 100 100 99 100 100 94 91 82
18 17 18 21 22 36 63 99 95 77 60 48 36 28 33 53 58 43 25 13 7 11 20 24 25 22 25 35 43 49 63 92 98 100 97 100 100 100 100 95 95 77 62
22 11 15 22 21 26 30 32 26 29 34 39 46 64 74 55 29 19 9 10 17 28 28 31 30 27 24 26 40 47 61 75 86 92 100 100 100 95 96 86 73 62 47
9 10 12 19 25 28 32 32 32 41 64 63 58 44 31 24 11 10 15 23 25 27 37 41 36 28 28 34 47 60 65 73 88 100 100 96 89 88 87 79 73 57 38
12 9 12 12 13 25 52 51 59 58 49 40 33 30 17 11 14 21 23 24 27 34 46 48 39 34 38 48 55 58 63 70 86 92 88 81 82 83 79 70 57 40 30
9 10 12 13 13 18 65 77 59 49 43 38 32 15 14 20 22 21 23 25 32 47 51 49 44 45 50 52 59 67 74 80 89 88 79 66 71 72 67 51 34 22 16
12 11 12 15 15 18 21 28 41 43 38 23 14 18 19 17 17 18 20 28 37 43 50 51 54 54 56 59 61 65 76 90 82 66 64 68 66 62 50 28 16 14 15
22 20 18 19 17 20 35 39 38 23 15 18 16 14 15 16 17 22 30 46 52 53 56 61 57 52 55 57 68 73 67 60 56 57 60 60 58 48 27 12 12 10 14
49 47 35 23 20 31 36 21 16 17 16 15 16 17 20 23 26 32 43 50 55 54 64 63 58 60 62 60 62 62 58 51 51 56 56 54 47 34 22 12 9 12 16
25 35 28 21 28 22 16 16 15 16 18 19 23 26 29 33 35 40 42 50 63 69 62 58 60 58 60 55 54 56 57 62 60 60 56 48 39 27 15 9 10 13 16
24 25 22 16 15 15 16 18 20 22 24 26 29 32 36 39 39 44 56 65 64 58 56 59 58 59 60 60 60 62 66 66 66 58 48 39 27 12 8 10 12 13 13
13 14 14 15 16 17 19 20 20 20 24 29 36 40 44 44 51 62 65 62 57 55 56 57 58 60 63 62 63 65 68 68 61 50 44 32 11 7 11 12 12 10 7
15 16 17 18 19 20 20 19 20 25 39 50 54 53 53 57 64 65 65 61 56 55 57 59 64 65 65 66 71 73 72 64 52 47 34 10 8 10 12 10 6 7 12
22 24 25 25 23 23 23 27 37 58 71 70 55 52 67 69 61 59 67 69 64 66 71 73 78 80 77 80 81 76 65 54 45 28 10 9 13 14 10 5 7 10 24